Probability
87 90 100 100 100 100 100 100 100 100 100 100 100 100 100 100 100 100 100 100 100 100 100 100 100 100 100 100 97 100 100 100 97 97 97 100 100 100 100 100 100 100 100
87 97 100 100 100 100 100 100 100 100 100 100 100 97 94 94 94 94 97 100 100 100 100 100 100 100 100 100 100 90 87 94 90 97 94 97 100 100 100 100 100 100 100
97 97 100 100 100 100 100 100 100 100 100 100 100 94 94 77 77 87 90 94 100 100 100 100 100 100 100 100 94 90 87 77 84 84 94 90 97 100 100 100 100 100 100
97 94 100 100 100 100 100 100 100 100 100 100 97 94 90 74 87 97 90 97 97 97 97 100 100 97 97 100 97 100 100 84 81 81 81 87 71 100 100 100 100 100 100
94 87 100 100 100 100 100 100 100 100 100 100 100 90 87 84 94 87 90 94 94 97 100 100 100 100 97 100 100 100 100 81 77 77 65 74 61 90 97 94 97 100 94
97 97 100 100 100 100 100 100 100 100 100 100 97 77 81 90 81 87 84 84 100 100 100 100 100 100 97 97 100 97 100 84 52 74 84 94 87 97 97 87 90 100 97
97 97 100 100 100 100 100 100 100 100 100 100 100 87 90 81 68 84 97 84 81 68 81 90 97 94 100 100 100 100 97 81 90 68 81 100 90 97 87 68 90 90 87
94 100 100 100 100 100 100 100 100 100 100 100 100 100 100 81 68 84 90 90 77 45 42 42 48 65 90 100 100 97 65 61 71 52 90 58 100 100 94 90 94 81 84
42 100 100 100 100 100 100 100 100 100 100 100 100 100 100 84 87 90 90 90 74 32 0 0 0 23 45 87 90 77 55 48 39 26 45 68 100 100 100 97 94 90 84
10 87 97 87 90 97 100 100 100 100 100 100 100 100 100 94 81 90 94 94 61 6 0 0 0 0 6 29 35 29 16 0 3 16 23 81 100 100 97 100 100 94 90
0 42 100 90 90 84 58 100 100 100 100 100 100 100 100 65 45 84 87 84 74 6 0 0 0 0 0 10 26 29 6 0 0 6 6 84 77 52 81 84 81 81 100
0 0 35 77 97 97 81 68 61 84 100 94 97 100 100 81 6 3 55 74 74 32 3 0 0 0 0 0 0 19 0 0 0 0 32 100 48 23 45 61 35 42 81
0 0 6 42 90 100 100 87 77 61 65 52 97 100 84 61 0 0 0 39 45 23 0 0 0 0 0 0 0 0 0 0 0 13 35 100 48 45 61 84 48 19 29
0 0 10 13 77 97 97 94 97 87 84 81 94 87 81 87 16 0 0 0 23 0 0 0 0 0 0 0 0 0 0 0 0 23 19 94 42 48 68 94 77 61 32
0 0 0 6 45 94 100 100 74 87 58 71 90 71 77 68 32 3 0 3 16 0 0 0 0 0 0 0 0 0 0 0 0 35 0 84 61 39 74 100 100 94 77
0 0 0 0 16 61 100 100 77 77 94 39 35 35 45 19 16 3 0 0 0 0 0 0 0 0 0 0 0 0 0 0 3 26 45 13 97 94 84 94 100 100 94
0 0 0 10 10 13 29 48 45 90 71 55 13 6 6 0 0 0 0 0 0 0 0 0 0 0 0 0 0 0 0 0 0 0 32 55 16 90 100 100 100 100 100
0 0 0 10 10 6 6 23 35 58 74 65 32 10 0 0 0 0 0 0 0 0 0 0 0 0 0 0 0 0 0 0 0 0 0 32 45 26 55 97 100 100 100
0 0 0 6 16 16 10 16 35 39 90 68 42 16 0 0 0 0 10 3 0 0 0 0 0 0 0 0 0 0 0 0 0 0 0 0 19 32 6 52 100 100 100
0 6 0 6 32 23 45 23 42 45 77 74 68 65 6 3 0 32 35 3 3 0 0 0 0 0 0 0 0 0 0 0 0 0 0 0 0 3 10 16 58 97 100
3 3 13 6 16 52 94 90 87 94 97 90 90 77 58 29 23 58 39 23 19 0 0 0 3 0 0 0 0 0 0 0 0 0 0 0 0 0 0 16 61 68 100
13 16 23 13 13 45 94 100 100 94 97 97 97 100 77 26 23 42 26 23 13 0 0 0 0 0 0 0 0 0 0 0 0 0 0 0 0 0 0 0 35 65 71
13 13 32 55 52 55 74 100 100 100 100 97 94 90 81 48 29 29 10 10 6 3 0 0 0 0 0 0 0 0 0 0 0 0 0 0 0 0 0 0 0 39 61
3 6 19 55 77 74 71 90 97 94 77 81 71 74 71 48 32 23 23 6 0 0 0 0 0 13 0 0 0 0 0 0 0 0 0 0 0 0 0 0 0 0 6
3 3 13 39 65 77 94 90 94 71 58 55 45 35 23 19 19 23 23 3 0 0 0 0 0 0 0 0 0 0 0 0 0 0 0 0 0 0 0 0 0 0 0
0 0 3 13 26 42 74 77 71 39 23 16 16 13 10 6 10 6 10 0 0 0 0 0 0 0 0 0 0 0 0 0 0 0 0 0 0 0 0 0 0 0 0
Height
5907 5907 5907 5906 5906 5906 5906 5905 5904 5903 5902 5902 5901 5900 5900 5899 5898 5897 5896 5896 5896 5896 5896 5896 5897 5897 5898 5898 5899 5901 5903 5905 5906 5908 5910 5911 5913 5914 5915 5916 5916 5916 5917
5909 5908 5908 5908 5908 5908 5908 5907 5907 5906 5905 5905 5904 5903 5902 5901 5899 5898 5898 5897 5896 5896 5896 5896 5896 5897 5897 5898 5899 5900 5902 5904 5905 5907 5908 5910 5911 5912 5914 5914 5915 5916 5916
5910 5910 5910 5910 5909 5909 5909 5909 5909 5908 5908 5907 5906 5905 5904 5902 5901 5900 5899 5898 5898 5897 5897 5897 5897 5896 5897 5897 5899 5900 5901 5903 5904 5905 5906 5908 5909 5910 5912 5913 5914 5915 5915
5911 5911 5911 5911 5911 5911 5911 5911 5910 5910 5910 5909 5908 5907 5906 5904 5903 5902 5901 5900 5899 5899 5898 5898 5897 5897 5897 5897 5898 5900 5901 5902 5903 5904 5905 5905 5906 5908 5910 5911 5912 5913 5914
5912 5912 5912 5912 5912 5912 5912 5912 5912 5911 5911 5911 5910 5909 5908 5907 5905 5904 5903 5902 5901 5901 5900 5899 5899 5898 5897 5897 5898 5899 5901 5902 5903 5903 5904 5904 5905 5907 5908 5909 5910 5911 5912
5912 5913 5912 5912 5913 5913 5913 5913 5913 5913 5913 5913 5912 5911 5911 5909 5908 5906 5905 5904 5903 5902 5902 5901 5900 5899 5898 5898 5899 5900 5901 5902 5902 5903 5904 5904 5905 5906 5907 5908 5909 5910 5910
5912 5912 5912 5912 5913 5913 5913 5913 5913 5913 5914 5914 5914 5913 5913 5912 5910 5909 5907 5906 5905 5904 5903 5902 5901 5900 5900 5900 5900 5901 5902 5903 5903 5903 5904 5904 5905 5905 5906 5907 5908 5908 5909
5912 5912 5912 5912 5913 5913 5913 5913 5913 5913 5914 5914 5914 5914 5914 5913 5912 5911 5909 5908 5907 5906 5905 5904 5903 5902 5901 5901 5901 5902 5902 5903 5904 5905 5905 5905 5905 5906 5906 5907 5907 5908 5908
5911 5912 5912 5912 5912 5913 5913 5913 5913 5913 5914 5914 5914 5914 5914 5913 5912 5912 5911 5910 5909 5907 5906 5905 5904 5903 5902 5902 5903 5903 5904 5904 5905 5906 5906 5906 5906 5906 5907 5907 5907 5907 5908
5911 5911 5911 5911 5911 5912 5912 5913 5913 5913 5913 5913 5913 5913 5913 5913 5912 5912 5911 5911 5910 5909 5907 5906 5905 5904 5904 5903 5903 5903 5904 5904 5905 5906 5906 5906 5906 5906 5906 5906 5907 5907 5907
5911 5910 5910 5910 5911 5911 5911 5912 5912 5912 5913 5913 5912 5912 5912 5912 5912 5911 5911 5910 5910 5909 5908 5907 5906 5906 5905 5904 5904 5903 5903 5904 5905 5906 5905 5905 5905 5906 5906 5906 5906 5906 5907
5910 5910 5910 5910 5910 5910 5910 5910 5910 5911 5911 5911 5911 5911 5911 5911 5911 5910 5910 5910 5909 5909 5909 5908 5907 5906 5905 5905 5904 5904 5903 5903 5904 5905 5904 5905 5905 5905 5905 5906 5906 5906 5906
5909 5909 5909 5909 5908 5908 5908 5908 5908 5909 5909 5909 5909 5909 5909 5910 5910 5910 5909 5909 5908 5908 5908 5908 5907 5906 5906 5905 5904 5903 5903 5903 5904 5904 5903 5904 5904 5904 5904 5905 5905 5906 5906
5906 5907 5907 5907 5907 5906 5906 5906 5906 5906 5906 5906 5906 5907 5907 5907 5908 5909 5908 5907 5907 5907 5906 5907 5906 5906 5906 5905 5904 5903 5903 5902 5902 5902 5902 5902 5903 5903 5903 5904 5904 5905 5905
5903 5903 5904 5904 5904 5903 5903 5903 5903 5903 5903 5904 5904 5904 5905 5905 5905 5906 5906 5906 5905 5904 5904 5905 5905 5905 5904 5903 5902 5902 5902 5901 5900 5900 5900 5900 5901 5901 5902 5902 5902 5903 5903
5900 5900 5900 5900 5900 5900 5900 5899 5899 5899 5899 5900 5900 5901 5901 5902 5902 5902 5903 5903 5903 5902 5902 5902 5902 5902 5901 5901 5900 5900 5900 5899 5899 5898 5898 5898 5898 5898 5898 5899 5899 5900 5901
5895 5896 5896 5896 5896 5895 5896 5895 5895 5895 5896 5896 5896 5897 5897 5898 5898 5899 5899 5900 5899 5899 5899 5899 5899 5899 5898 5898 5897 5897 5897 5896 5895 5895 5894 5894 5894 5894 5894 5894 5894 5895 5896
5890 5891 5892 5892 5892 5891 5891 5891 5890 5891 5891 5892 5892 5892 5893 5893 5893 5894 5895 5895 5895 5895 5895 5895 5895 5895 5895 5894 5894 5893 5893 5892 5891 5890 5889 5889 5889 5889 5889 5889 5889 5889 5890
5886 5885 5885 5886 5887 5887 5887 5886 5886 5886 5886 5887 5888 5887 5888 5888 5888 5889 5890 5890 5890 5890 5890 5890 5890 5891 5891 5890 5890 5889 5888 5887 5886 5885 5884 5884 5883 5884 5883 5883 5883 5883 5884
5879 5879 5879 5879 5880 5881 5882 5882 5881 5880 5880 5881 5883 5883 5882 5882 5883 5884 5884 5884 5885 5885 5885 5885 5885 5885 5886 5885 5885 5884 5883 5882 5881 5880 5879 5878 5878 5878 5878 5878 5878 5878 5878
5871 5872 5872 5872 5872 5874 5875 5876 5875 5874 5874 5875 5876 5877 5876 5876 5877 5877 5878 5877 5878 5878 5878 5879 5879 5879 5880 5880 5879 5879 5878 5877 5876 5875 5874 5872 5873 5873 5872 5873 5872 5872 5872
5863 5864 5864 5864 5864 5865 5867 5868 5868 5868 5867 5868 5869 5869 5869 5869 5869 5870 5871 5870 5871 5871 5871 5871 5873 5873 5874 5874 5874 5873 5872 5872 5870 5870 5869 5867 5867 5867 5867 5867 5867 5867 5867
5853 5855 5856 5856 5857 5858 5858 5859 5860 5858 5860 5861 5861 5861 5861 5862 5862 5863 5863 5863 5863 5862 5862 5863 5866 5867 5867 5868 5868 5867 5866 5866 5865 5865 5863 5862 5861 5862 5861 5861 5862 5862 5862
5845 5847 5848 5849 5850 5851 5851 5851 5852 5852 5852 5852 5851 5851 5852 5853 5854 5854 5855 5855 5854 5854 5854 5856 5858 5859 5861 5861 5861 5861 5861 5860 5859 5858 5858 5856 5856 5855 5855 5855 5855 5856 5857
5837 5839 5841 5842 5843 5844 5844 5844 5844 5844 5844 5843 5843 5841 5841 5843 5844 5845 5846 5846 5846 5847 5847 5848 5850 5851 5853 5854 5854 5854 5854 5854 5853 5852 5851 5850 5850 5849 5849 5849 5849 5849 5851
5829 5832 5834 5835 5836 5836 5836 5836 5836 5835 5836 5835 5835 5833 5832 5833 5835 5837 5838 5838 5838 5839 5840 5840 5841 5843 5844 5846 5847 5847 5847 5846 5845 5845 5844 5842 5842 5843 5843 5844 5844 5844 5844
Wind_Speed
9 9 9 10 12 13 14 15 16 18 18 18 17 15 13 12 10 9 8 6 5 4 4 4 2 2 4 7 10 12 14 15 17 17 17 16 15 14 13 12 10 9 8
8 8 8 10 12 13 14 14 15 16 18 19 19 18 16 14 13 11 10 8 6 5 5 4 3 1 4 6 7 9 11 13 16 17 18 18 17 17 17 16 14 11 10
7 7 7 9 10 12 13 13 14 15 17 18 19 18 17 16 15 13 12 10 8 6 5 5 4 3 4 6 7 7 8 9 10 13 15 17 17 17 16 17 15 14 13
4 6 6 7 9 10 11 12 13 14 15 17 17 17 17 17 16 15 14 14 12 9 7 6 5 4 3 6 8 9 8 8 8 9 11 12 13 13 14 15 15 15 14
2 3 4 6 7 8 9 10 11 12 13 14 14 15 15 16 17 17 16 16 15 13 11 9 8 6 4 2 5 8 8 7 6 6 8 8 8 9 11 13 13 14 15
2 2 2 3 4 6 7 8 8 9 10 10 11 12 13 13 15 16 16 17 17 16 14 12 10 9 7 4 1 4 5 4 4 4 6 6 5 6 7 9 10 11 12
4 3 2 2 2 3 4 5 6 5 5 6 7 8 9 10 12 14 15 16 16 16 16 15 13 10 8 6 3 1 1 2 3 3 4 4 4 3 3 5 7 8 9
5 5 4 3 2 3 4 5 5 4 3 1 2 4 4 6 8 11 13 14 14 14 14 15 14 13 10 7 5 3 2 1 2 3 4 4 4 4 4 4 5 6 7
4 6 6 5 5 5 5 5 5 5 4 3 2 2 1 1 3 5 8 11 12 12 12 12 13 12 11 8 5 3 2 1 2 3 4 4 4 4 5 6 6 7 7
3 4 6 7 8 8 7 6 6 6 6 5 5 3 2 1 1 2 3 6 8 9 9 10 10 10 9 8 6 3 2 2 2 2 4 5 5 5 5 5 6 7 9
4 4 5 7 8 9 10 9 8 8 8 7 6 5 4 3 3 3 2 3 4 5 6 6 7 8 8 7 6 4 3 4 3 3 6 6 6 6 5 5 6 7 8
7 7 7 7 8 9 11 12 11 12 11 10 10 8 7 6 5 5 4 4 4 3 3 3 4 5 6 6 7 7 7 7 6 5 7 6 7 7 7 6 6 6 7
9 10 11 11 10 10 11 12 13 15 15 14 14 13 12 10 8 8 7 7 7 6 5 5 5 5 5 5 6 7 9 10 9 8 10 9 9 9 9 9 8 8 7
11 11 12 12 13 13 13 14 15 16 18 18 18 17 16 14 12 10 10 10 10 10 9 8 8 9 8 8 8 8 9 10 11 11 13 12 13 13 13 13 12 11 10
13 13 12 12 13 14 16 16 16 17 19 20 20 20 18 17 15 14 13 13 14 14 13 11 11 11 11 10 11 10 10 11 13 14 15 15 16 17 17 18 17 16 15
18 17 16 17 16 15 16 18 18 18 19 20 21 21 21 21 20 18 16 16 17 17 16 14 14 14 14 14 13 12 13 14 15 16 17 17 18 19 20 21 21 21 20
24 22 21 21 21 20 18 18 19 20 19 20 21 22 23 24 24 23 21 20 20 19 18 17 16 17 16 15 14 15 15 16 16 17 18 19 20 21 22 23 24 24 24
29 28 28 26 25 24 23 21 21 21 21 21 21 23 24 25 26 26 25 24 23 22 21 21 19 18 17 17 16 16 17 18 19 19 19 20 22 23 23 24 24 25 26
32 32 32 30 28 28 26 25 25 23 24 24 23 24 25 25 26 26 26 26 25 24 24 24 22 21 20 19 18 18 18 20 21 21 21 22 23 23 24 24 24 25 26
36 35 35 35 32 30 29 28 28 28 26 26 26 26 27 27 27 26 26 27 26 26 27 27 25 24 22 21 19 19 20 21 21 21 22 22 22 22 23 23 24 24 25
39 38 37 37 36 34 32 31 31 31 30 29 28 28 28 29 29 28 28 29 29 28 29 28 27 26 23 22 20 20 20 20 20 20 21 23 22 22 22 22 23 23 23
37 36 36 35 35 34 32 32 33 34 34 32 31 30 29 30 30 30 30 31 31 31 30 29 28 26 24 22 20 20 20 20 20 20 22 24 24 23 23 21 21 21 21
32 31 30 30 30 30 31 31 34 35 34 33 32 32 31 31 32 31 32 33 33 33 31 29 29 27 25 23 21 20 21 21 22 22 24 25 25 24 23 23 21 20 19
29 28 26 25 25 26 28 30 33 35 36 36 37 38 34 33 34 34 35 36 36 34 31 31 31 29 27 25 23 22 22 23 24 25 25 26 26 25 24 24 23 22 20
29 28 26 26 25 26 28 30 31 34 37 39 42 42 39 37 38 37 39 39 37 34 31 31 33 32 30 27 25 23 23 24 25 26 27 27 26 25 24 24 24 25 23
30 30 30 29 28 29 30 32 33 34 38 41 43 43 41 39 40 40 40 39 37 34 33 34 35 35 32 28 26 24 24 25 27 27 27 28 27 25 23 23 24 25 25
Wind_Direction
93 96 96 92 87 80 80 81 81 80 78 74 71 69 66 62 57 56 59 61 59 57 52 42 8 266 235 224 222 221 220 218 217 219 220 224 228 232 237 240 244 248 254
93 100 102 101 98 90 86 86 85 86 84 80 76 72 68 64 59 58 59 60 57 53 47 41 27 296 241 227 220 217 220 225 232 233 235 237 241 244 246 247 248 249 250
84 96 108 108 106 99 94 93 92 90 87 83 77 72 68 63 60 57 56 55 51 46 39 32 17 340 255 231 225 227 231 237 243 246 245 245 245 247 247 246 247 249 253
87 90 109 115 113 107 101 100 98 93 88 84 78 73 68 64 60 58 56 53 50 45 41 39 30 2 292 235 229 234 242 247 255 254 246 244 246 244 243 242 245 250 255
131 98 100 114 119 117 111 109 105 96 88 82 78 72 67 62 58 56 55 54 52 47 43 41 39 28 6 262 228 233 241 248 255 259 243 240 245 245 241 241 246 253 258
209 150 106 104 117 125 126 125 120 105 91 81 74 69 64 59 54 52 51 52 54 51 46 43 43 41 35 34 231 234 243 251 252 255 241 238 246 247 242 242 248 256 260
221 221 185 148 138 146 151 153 148 132 104 81 69 64 60 54 50 48 46 47 52 53 50 48 48 48 46 47 47 26 289 285 279 269 255 249 246 243 244 243 249 259 267
222 236 231 220 215 206 195 187 180 174 163 94 45 47 50 47 42 40 39 39 45 52 53 50 50 51 49 48 47 43 37 348 325 322 314 298 281 268 267 263 262 266 274
226 241 246 245 246 245 235 223 213 207 209 230 268 316 352 24 25 22 26 28 32 42 49 49 50 52 52 51 48 41 33 359 332 336 316 315 307 294 288 283 273 265 271
245 250 254 253 252 252 249 243 235 231 228 227 234 251 262 255 292 336 356 11 18 28 40 46 47 48 50 49 45 37 6 317 314 315 292 296 294 296 299 296 283 274 272
297 283 269 260 257 254 252 249 242 238 235 231 231 236 246 248 258 276 301 324 349 11 29 39 41 38 37 34 25 10 343 321 319 289 285 288 284 287 295 300 296 285 287
305 299 288 273 266 261 257 255 250 244 240 238 239 241 248 246 249 268 269 273 285 306 333 353 10 17 16 14 7 353 338 326 320 299 291 288 280 280 285 287 291 290 295
299 300 297 290 283 275 267 262 259 253 247 244 244 243 245 247 247 260 264 262 263 269 279 291 298 310 326 335 341 341 336 330 324 303 293 288 279 276 277 278 279 281 287
289 293 293 294 292 288 281 271 264 260 255 250 249 249 247 248 248 249 257 262 261 263 268 277 286 291 293 296 300 310 316 319 314 300 291 284 277 272 271 273 273 272 275
275 280 285 286 290 294 291 284 274 267 262 257 254 254 254 255 256 254 250 257 262 263 264 270 281 289 291 290 289 296 303 307 302 294 287 281 277 272 269 268 270 270 270
271 274 280 286 285 287 292 289 281 274 268 265 261 257 257 259 261 263 261 258 259 262 265 269 278 285 290 287 285 288 295 300 298 292 286 281 277 274 271 269 268 270 270
276 278 283 286 287 287 289 290 285 278 273 270 270 267 263 261 263 266 270 267 261 260 264 268 277 283 287 285 284 288 295 301 299 291 286 282 279 278 276 274 270 268 268
281 283 285 287 287 287 287 287 285 279 274 271 270 272 271 270 269 271 273 271 266 263 264 267 274 281 285 284 284 288 293 297 296 289 283 280 280 280 280 278 275 270 267
280 282 283 284 284 284 283 282 281 278 272 269 269 273 274 275 275 275 274 272 269 266 265 266 272 278 280 280 282 285 289 292 289 286 282 278 278 281 282 281 278 274 270
275 277 280 282 282 281 281 280 277 275 272 268 267 270 274 275 275 276 275 274 272 270 267 264 269 276 277 276 279 282 286 286 284 284 282 279 279 281 283 284 283 278 273
272 275 276 277 278 277 276 275 274 274 272 269 268 269 272 274 274 274 274 275 274 271 269 263 267 272 271 272 278 281 281 279 280 282 281 281 282 283 284 284 283 281 277
268 269 270 271 272 274 273 272 271 271 271 270 270 271 274 274 275 275 273 274 276 274 269 262 262 266 266 268 274 277 276 275 277 280 280 281 284 284 284 282 282 282 279
262 262 263 266 270 273 274 271 270 269 269 270 271 273 274 276 277 277 278 277 278 276 267 259 259 262 263 265 269 270 272 272 276 280 280 281 283 282 281 281 280 279 278
254 254 256 261 269 274 277 276 272 271 270 268 269 271 272 275 278 282 284 284 282 280 270 259 255 258 260 263 267 267 269 274 277 281 283 283 283 283 280 280 279 275 273
248 249 252 260 269 276 281 283 279 273 270 268 268 267 267 272 276 281 284 285 286 284 275 263 255 254 255 260 265 267 269 272 277 281 283 284 283 281 279 279 278 276 274
248 249 254 260 268 276 282 285 282 275 270 268 267 267 267 270 272 279 286 285 284 283 277 268 258 253 252 256 262 266 269 274 278 280 282 285 285 282 281 281 278 278 277